Location: Unspecified
(0.0000°N, 0.0000°E)
Time: 01:29:37
(UTC+01:00)

JASON 3 - Pass Details

Date: 05 October 2020
Orbit: 1332 x 1343 km, 66.0° (Epoch: 27 October)

Event Time Altitude Azimuth Distance (km) Brightness Sun altitude
Rises 22:42:19 0° 322° (NW) 4,344 ? -43.3°
Reaches altitude 10° 22:45:23 10° 315° (NW) 3,372 ? -44.1°
Enters shadow 22:52:10 38° 259° (W) 1,942 ? -45.8°
